DW8228 Weather Reports


time (UTC)temp
C
wind
direction
speed
KPH
gust
KPH
rain 1hr
cm
rain 24hr
cm
rain mn
cm
humidity
%
barometer
mb
20260906063021 12 267 3.2 11.3 0.00 0.00 0.00 60 1006.8
20260906061517 12 311 4.8 11.3 0.00 0.00 0.00 60 1006.8
20260906060017 11 266 6.4 12.9 0.00 0.00 0.00 61 1006.8
20260906054515 11 283 8.0 16.1 0.00 0.00 0.00 61 1006.6
20260906053013 11 298 11.3 19.3 0.00 0.00 0.00 61 1006.4
20260906051511 11 293 9.7 20.9 0.00 0.00 0.00 62 1006.3
20260906050009 11 284 11.3 22.5 0.00 0.00 0.00 63 1006.1
20260906044508 10 265 11.3 19.3 0.00 0.00 0.00 64 1006.0
20260906043007 10 292 12.9 22.5 0.00 0.00 0.00 64 1005.9
20260906041505 10 298 17.7 25.7 0.00 0.00 0.00 64 1005.6
20260906040003 10 268 16.1 24.1 0.00 0.00 0.00 64 1005.5
20260906034606 10 287 17.7 25.7 0.00 0.00 0.00 64 1005.0
20260906033110 10 319 14.5 27.4 0.00 0.00 0.00 64 1004.8
20260906031557 10 274 19.3 27.4 0.00 0.00 0.00 64 1004.8
20260906030054 10 288 20.9 29.0 0.00 0.00 0.00 64 1004.7
20260906024556 10 313 16.1 27.4 0.00 0.00 0.00 64 1004.5
20260906023054 10 291 14.5 27.4 0.00 0.00 0.00 64 1004.5
20260906021547 10 294 14.5 24.1 0.00 0.00 0.00 65 1004.3
20260906020057 10 277 14.5 24.1 0.00 0.00 0.00 65 1004.1
20260906014545 10 292 16.1 25.7 0.00 0.00 0.00 65 1004.1
20260906013050 10 269 14.5 29.0 0.00 0.00 0.00 65 1003.9
20260906011557 10 292 17.7 27.4 0.00 0.00 0.00 65 1003.6
20260906010042 10 9 16.1 27.4 0.00 0.00 0.00 65 1003.5
20260906004536 10 316 14.5 30.6 0.00 0.00 0.00 65 1003.2
20260906003035 10 287 16.1 33.8 0.00 0.00 0.00 64 1003.2
20260906001531 10 297 14.5 27.4 0.00 0.00 0.00 63 1002.8
20260906000046 10 313 19.3 30.6 0.00 0.00 0.00 63 1002.8
20260905234628 11 288 19.3 35.4 0.00 0.00 0.00 63 1002.6
20260905233025 11 291 24.1 33.8 0.00 0.00 0.00 63 1002.3
20260905231523 11 311 25.7 40.2 0.00 0.00 0.00 63 1002.2
20260905230020 11 319 19.3 37.0 0.00 0.00 0.00 62 1002.0
20260905224516 11 295 22.5 30.6 0.00 0.00 0.00 62 1001.8
20260905223012 11 308 16.1 29.0 0.00 0.00 0.00 63 1001.5
20260905221509 12 269 20.9 32.2 0.00 0.00 0.00 63 1001.2
20260905220011 12 312 22.5 33.8 0.00 0.00 0.00 63 1001.1
20260905214505 12 306 19.3 29.0 0.00 0.00 0.00 63 1000.8
20260905213102 12 315 17.7 30.6 0.00 0.00 0.00 63 1000.7
20260905211559 13 284 16.1 29.0 0.00 0.00 0.00 63 1000.6
20260905210105 13 360 16.1 27.4 0.00 0.00 0.00 63 1000.3
20260905204558 13 290 16.1 30.6 0.00 0.00 0.00 63 1000.1
20260905203049 13 287 16.1 25.7 0.00 0.00 0.00 64 999.9
20260905201547 13 9 12.9 20.9 0.00 0.00 0.00 64 999.7
20260905200044 13 281 14.5 22.5 0.00 0.00 0.00 64 999.4
20260905194543 13 246 9.7 24.1 0.00 0.00 0.00 65 999.3
20260905193042 13 286 12.9 19.3 0.00 0.00 0.00 64 999.2
20260905191541 13 283 11.3 22.5 0.00 0.00 0.00 64 999.2
20260905190040 13 223 11.3 24.1 0.00 0.00 0.00 64 999.2
20260905184554 13 269 9.7 17.7 0.00 0.00 0.00 65 999.1
20260905183046 13 234 8.0 16.1 0.00 0.00 0.00 65 998.8
20260905181546 14 263 9.7 17.7 0.00 0.00 0.00 64 998.8
20260905180036 14 277 12.9 20.9 0.00 0.00 0.00 64 998.6
20260905174532 15 256 12.9 24.1 0.00 0.00 0.00 63 998.4
20260905173033 15 238 12.9 25.7 0.00 0.00 0.00 62 998.2
20260905171530 15 223 12.9 25.7 0.00 0.00 0.00 61 998.1
20260905170027 15 262 16.1 27.4 0.00 0.00 0.00 60 997.9
20260905164527 16 275 11.3 25.7 0.00 0.00 0.00 59 997.9
20260905163025 16 225 11.3 25.7 0.00 0.00 0.00 58 997.7
20260905161524 16 276 9.7 25.7 0.00 0.00 0.00 59 997.7
20260905160027 16 236 12.9 24.1 0.00 0.00 0.00 59 997.4
20260905154521 16 283 12.9 27.4 0.00 0.00 0.00 59 997.3
20260905153019 16 240 14.5 29.0 0.00 0.00 0.00 58 997.2
20260905151518 16 270 19.3 30.6 0.00 0.00 0.00 57 997.1
20260905150016 16 259 16.1 30.6 0.00 0.00 0.00 56 997.0
20260905144516 16 252 19.3 29.0 0.00 0.00 0.00 55 996.9
20260905143014 17 235 16.1 30.6 0.00 0.00 0.00 53 996.7
20260905141513 18 263 12.9 27.4 0.00 0.00 0.00 52 996.5
20260905140011 18 219 11.3 24.1 0.00 0.00 0.00 50 996.4
20260905134509 18 253 14.5 27.4 0.00 0.00 0.00 47 996.3
20260905133010 18 279 12.9 24.1 0.00 0.00 0.00 48 996.3
20260905131507 18 259 9.7 22.5 0.00 0.00 0.00 48 996.2
20260905130008 17 248 12.9 27.4 0.00 0.00 0.00 45 996.1
20260905124503 18 246 12.9 24.1 0.00 0.00 0.00 46 995.9
20260905123101 18 259 11.3 24.1 0.00 0.00 0.00 46 995.8
20260905121602 18 269 11.3 22.5 0.00 0.00 0.00 48 995.8
20260905120055 17 239 12.9 22.5 0.00 0.00 0.00 48 995.7
20260905114554 17 266 9.7 17.7 0.00 0.00 0.00 51 995.6
20260905113052 17 253 8.0 17.7 0.00 0.00 0.00 53 995.6
20260905111640 17 360 12.9 24.1 0.00 0.00 0.00 49 995.5
20260905110047 17 278 12.9 20.9 0.00 0.00 0.00 51 995.4
20260905104545 17 251 9.7 20.9 0.00 0.00 0.00 52 995.1
20260905103043 17 291 8.0 17.7 0.00 0.00 0.00 53 995.0
20260905101549 16 275 9.7 19.3 0.00 0.00 0.00 55 994.9
20260905100047 16 296 14.5 20.9 0.00 0.00 0.00 54 994.9
20260905094538 17 312 4.8 12.9 0.00 0.00 0.00 54 994.6
20260905093035 17 304 11.3 17.7 0.00 0.00 0.00 55 994.5
20260905091534 17 292 9.7 17.7 0.00 0.00 0.00 55 994.5
20260905090033 16 291 11.3 17.7 0.00 0.00 0.00 56 994.4
20260905084532 16 5 3.2 12.9 0.00 0.00 0.00 58 994.3
20260905083030 15 277 6.4 12.9 0.00 0.00 0.00 60 994.2
20260905081524 16 271 6.4 12.9 0.00 0.00 0.00 59 994.2
20260905080033 15 277 4.8 12.9 0.00 0.00 0.00 60 994.1
20260905074520 14 238 8.0 12.9 0.00 0.00 0.00 62 994.0
20260905073014 13 290 11.3 17.7 0.00 0.00 0.00 64 993.9
20260905071519 13 302 6.4 14.5 0.00 0.00 0.00 65 993.8
20260905070009 13 291 6.4 14.5 0.00 0.00 0.00 65 993.7
20260905064513 13 279 6.4 12.9 0.00 0.00 0.00 66 993.6